GRARBER Weather Reports


Display with metric or nautical units.
time (UTC)temp
F
wind
direction
speed
MPH
gust
MPH
rain 1hr
in
rain 24hr
in
rain mn
in
humidity
%
barometer
mb
20260905222056 46 300 15.0 23.0 0.00 0.00 0.00 81
20260905211653 48 300 15.0 0.0 0.00 0.00 0.00 76
20260905201654 50 300 15.0 25.0 0.00 0.00 0.00 76
20260905191955 52 280 21.0 30.0 0.00 0.00 0.00 71
20260905181653 52 270 24.0 36.0 0.00 0.00 0.00 71
20260905171654 54 260 24.0 33.0 0.00 0.00 0.00 66
20260905162057 54 260 25.0 36.0 0.00 0.00 0.00 71
20260905152121 54 250 25.0 39.0 0.00 0.00 0.00 87
20260905142227 50 240 23.0 36.0 0.00 0.00 0.00 99
20260905131854 50 250 22.0 33.0 0.00 0.00 0.00 99
20260905121623 50 240 23.0 35.0 0.00 0.00 0.00 99
20260905111656 48 240 20.0 28.0 0.00 0.00 0.00 99
20260905102114 48 250 17.0 24.0 0.00 0.00 0.00 99
20260905091623 46 240 17.0 0.0 0.00 0.00 0.00 99
20260905081656 46 260 18.0 0.0 0.00 0.00 0.00 99
20260905071957 46 280 18.0 28.0 0.00 0.00 0.00 93
20260905061656 46 300 18.0 26.0 0.00 0.00 0.00 93
20260905051656 45 300 18.0 26.0 0.00 0.00 0.00 99
20260905042058 43 330 24.0 0.0 0.00 0.00 0.00 99
20260905031656 48 330 24.0 36.0 0.00 0.00 0.00 93
20260905021656 52 320 16.0 26.0 0.00 0.00 0.00 93
20260905011956 54 320 17.0 25.0 0.00 0.00 0.00 99
20260905001712 61 280 25.0 38.0 0.00 0.00 0.00 77
20260904231712 61 270 32.0 45.0 0.00 0.00 0.00 72